Home > Weather > Pensacola > Past weeks

Flag for USA Past Weather in Pensacola, Florida, USA — Yesterday and Last 2 Weeks

Now
87 °F

Sunny.


Feels Like: 94 °F
Forecast: 77 / 90 °F
Wind: 13 mph from South

Location: Pensacola Regional Airport

Current Time: Jun 28, 2016 at 5:39:22 PM

Latest Report: Jun 28, 2016 at 4:53 PM


Visibility: 10 mi

Pressure: 29.91 "Hg

Humidity: 61%

Dew Point: 72 °F

Location of PensacolaLocation

Past Weather in Pensacola — Graph

°F

Pensacola Temperature Yesterday

Maximum temperature yesterday: 89 °F (at 3:53 PM)
Minimum temperature yesterday: 76 °F (at 2:53 AM)
Average temperature yesterday: 82 °F

High & Low Weather Summary for the Past Weeks

 TemperatureHumidityPressure
High94 °F (Jun 26, 12:53 PM)94% (Jun 27, 12:53 AM)30.26 "Hg (Jun 27, 12:53 AM)
Low71 °F (Jun 18, 3:53 AM)36% (Jun 21, 12:53 PM)29.87 "Hg (Jun 17, 5:53 PM)
Average82 °F70%30.05 "Hg
* Reported Jun 13 3:53 PM — Jun 28 3:53 PM, Pensacola, Weather by CustomWeather, © 2016

Note: Actual official high and low records may vary slightly from our data, if they occured in-between our weather recording intervals... More about our weather records

Advertising

Pensacola Weather History for the Previous 24 Hours

Scroll right to see more
 ConditionsComfort  
Time TempWeatherWind HumidityBarometerVisibility
3:53 PM
Tue, Jun 28
90 °FSunny.8 mph54%29.92 "Hg10 mi
2:53 PM89 °FPassing clouds.3 mph52%29.95 "Hg10 mi
1:53 PM88 °FScattered clouds.7 mph59%29.98 "Hg10 mi
12:53 PM89 °FPartly sunny.9 mph59%30.00 "Hg10 mi
11:53 AM89 °FPassing clouds.8 mph61%30.01 "Hg10 mi
10:53 AM85 °FPartly sunny.9 mph68%30.02 "Hg10 mi
9:53 AM87 °FSunny.3 mph63%30.02 "Hg10 mi
8:53 AM85 °FSunny.5 mph63%30.02 "Hg10 mi
7:53 AM82 °FSunny.5 mph74%30.01 "Hg10 mi
6:53 AM78 °FSunny.5 mph87%30.00 "Hg9 mi
5:53 AM76 °FSunny.5 mph91%29.99 "Hg10 mi
4:53 AM76 °FClear.No wind88%29.97 "Hg10 mi
3:53 AM75 °FClear.No wind90%29.96 "Hg10 mi
2:53 AM76 °FClear.No wind88%29.97 "Hg10 mi
1:53 AM77 °FClear.No wind85%29.98 "Hg10 mi
12:53 AM79 °FClear.3 mph84%30.01 "Hg10 mi
11:53 PM
Mon, Jun 27
80 °FClear.7 mph81%30.02 "Hg10 mi
10:53 PM81 °FClear.7 mph79%30.03 "Hg10 mi
9:53 PM80 °FPassing clouds.No wind81%30.02 "Hg10 mi
8:53 PM83 °FClear.6 mph72%30.01 "Hg10 mi
7:53 PM85 °FSunny.6 mph65%30.00 "Hg10 mi
6:53 PM86 °FPassing clouds.8 mph63%29.99 "Hg10 mi
5:53 PM86 °FPassing clouds.10 mph67%29.98 "Hg10 mi
Weather by CustomWeather, © 2016

See weather overviewHow to use our weather pages